London, United Kingdom

12:21 PM BST on July 26, 2016 (GMT +0100)
London

Weather History for 03772 - October, 2011

Change the Weather History Date:

Thursday, October 13, 2011

  Actual Average Record
Temperature  
Mean Temperature 58 °F -  
Max Temperature 64 °F 55 °F - ()
Min Temperature 51 °F 43 °F - ()
Degree Days  
Heating Degree Days 8    
Growing Degree Days 8 (Base 50)    
Moisture  
Dew Point 53 °F    
Average Humidity 83    
Maximum Humidity 94    
Minimum Humidity 63    
Precipitation  
Precipitation 0.00 in - - ()
Sea Level Pressure  
Sea Level Pressure 30.37 in    
Wind  
Wind Speed 5 mph ()    
Max Wind Speed 12 mph    
Max Gust Speed -    
Visibility 6.6 miles    
Events      
T = Trace of Precipitation, MM = Missing Value Source: Averaged Metar Reports

Daily Weather History Graph

Daily Weather History Graph

Search for Another Location

Airport or City:

Trip Planner

Search our weather history database for the weather conditions in past years. The results will help you decide how hot, cold, wet, or windy it might be!

Date:

Astronomy

Oct. 13, 2011 Rise Set
Actual Time 7:21 AM BST 6:13 PM BST
Civil Twilight 6:48 AM BST 6:47 PM BST
Nautical Twilight 6:09 AM BST 7:25 PM BST
Astronomical Twilight 5:30 AM BST 8:04 PM BST
Moon 6:21 PM BST (10/13) 8:56 AM BST (10/13)
Length of Visible Light 11h 59m
Length of Day
10h 52m
Full, 98% of the Moon is Illuminated
Oct 13
Full
Oct 20
Last Quarter
Oct 26
New
Nov 2
First Quarter
Nov 10
Full

Hourly Weather History & Observations

Time (BST) Temp. Dew Point Humidity Pressure Visibility Wind Dir Wind Speed Gust Speed Precip Events Conditions
12:20 AM 55.4 °F 53.6 °F 94% 30.24 in 5.6 mi West 5.8 mph - N/A   Partly Cloudy
12:50 AM 58 °F 56 °F 91% 30.26 in 9 mi WNW 3.5 mph - -   Scattered Clouds
12:50 AM 57.2 °F 55.4 °F 94% 30.24 in 6.2 mi WNW 3.5 mph - N/A   Scattered Clouds
1:20 AM 57.2 °F 55.4 °F 94% 30.24 in 6.2 mi WNW 3.5 mph - N/A   Scattered Clouds
1:50 AM 59.0 °F 55.4 °F 88% 30.27 in 6.2 mi Calm Calm - N/A   Unknown
2:20 AM 59.0 °F 55.4 °F 88% 30.27 in 6.2 mi Variable 3.5 mph - N/A   Overcast
2:50 AM 57.2 °F 55.4 °F 94% 30.27 in 6.2 mi Variable 3.5 mph - N/A   Mostly Cloudy
3:20 AM 57.2 °F 55.4 °F 94% 30.27 in 5.0 mi North 2.3 mph - N/A   Unknown
3:50 AM 58 °F 55 °F 87% 30.29 in 6 mi NW 1.2 mph - -   Light Haze
3:50 AM 57.2 °F 55.4 °F 94% 30.27 in 4.3 mi North 2.3 mph - N/A   Unknown
4:20 AM 57.2 °F 55.4 °F 94% 30.30 in 4.3 mi Variable 3.5 mph - N/A   Partly Cloudy
4:50 AM 57.2 °F 55.4 °F 94% 30.30 in 4.3 mi North 3.5 mph - N/A   Scattered Clouds
5:20 AM 59.0 °F 55.4 °F 88% 30.30 in 5.0 mi Variable 3.5 mph - N/A   Scattered Clouds
5:50 AM 57.2 °F 53.6 °F 88% 30.30 in 5.6 mi ENE 4.6 mph - N/A   Scattered Clouds
6:20 AM 55.4 °F 53.6 °F 94% 30.30 in 6.2 mi Variable 3.5 mph - N/A   Partly Cloudy
6:50 AM 56 °F 53 °F 86% 30.32 in 8 mi NE 3.5 mph - -  
6:50 AM 55.4 °F 51.8 °F 88% 30.30 in 6.2 mi NE 4.6 mph - N/A   Partly Cloudy
7:20 AM 57.2 °F 53.6 °F 88% 30.33 in 5.6 mi NE 4.6 mph - N/A   Mostly Cloudy
7:50 AM 57.2 °F 53.6 °F 88% 30.33 in 5.0 mi East 3.5 mph - N/A   Mostly Cloudy
8:20 AM 57.2 °F 53.6 °F 88% 30.33 in 5.0 mi East 4.6 mph - N/A   Mostly Cloudy
8:50 AM 59.0 °F 53.6 °F 82% 30.36 in 5.6 mi North 4.6 mph - N/A   Mostly Cloudy
9:20 AM 59.0 °F 55.4 °F 88% 30.36 in 5.6 mi North 4.6 mph - N/A   Mostly Cloudy
9:50 AM 59 °F 55 °F 81% 30.38 in 10 mi NNE 4.6 mph - -   Scattered Clouds
9:50 AM 59.0 °F 55.4 °F 88% 30.36 in 6.2 mi NNE 4.6 mph - N/A   Mostly Cloudy
10:20 AM 59.0 °F 55.4 °F 88% 30.39 in 6.2 mi NE 5.8 mph - N/A   Scattered Clouds
10:50 AM 60.8 °F 53.6 °F 77% 30.39 in 6.2 mi ENE 5.8 mph - N/A   Scattered Clouds
11:20 AM 62.6 °F 53.6 °F 72% 30.39 in 6.2 mi ENE 8.1 mph - N/A   Scattered Clouds
11:50 AM 62.6 °F 55.4 °F 77% 30.39 in 6.2 mi NE 5.8 mph - N/A   Mostly Cloudy
12:20 PM 60.8 °F 53.6 °F 77% 30.39 in 6.2 mi ENE 6.9 mph - N/A   Scattered Clouds
12:50 PM 61 °F 54 °F 71% 30.40 in 11 mi ENE 6.9 mph - -   Partly Cloudy
12:50 PM 60.8 °F 53.6 °F 77% 30.39 in 6.2 mi ENE 6.9 mph - N/A   Mostly Cloudy
1:20 PM 60.8 °F 53.6 °F 77% 30.39 in 6.2 mi ENE 8.1 mph - N/A   Scattered Clouds
1:50 PM 60.8 °F 53.6 °F 77% 30.39 in 6.2 mi East 10.4 mph - N/A   Scattered Clouds
2:20 PM 60.8 °F 53.6 °F 77% 30.39 in 6.2 mi East 9.2 mph - N/A   Scattered Clouds
2:50 PM 62.6 °F 53.6 °F 72% 30.39 in 6.2 mi East 10.4 mph - N/A   Partly Cloudy
3:20 PM 62.6 °F 53.6 °F 72% 30.39 in 6.2 mi East 11.5 mph - N/A   Scattered Clouds
3:50 PM 62 °F 53 °F 63% 30.40 in 17 mi East 10.4 mph - -   Scattered Clouds
3:50 PM 60.8 °F 53.6 °F 77% 30.39 in 6.2 mi East 10.4 mph - N/A   Scattered Clouds
4:20 PM 60.8 °F 53.6 °F 77% 30.39 in 6.2 mi East 8.1 mph - N/A   Mostly Cloudy
4:50 PM 60.8 °F 53.6 °F 77% 30.42 in 6.2 mi ESE 9.2 mph - N/A   Scattered Clouds
5:20 PM 59.0 °F 51.8 °F 77% 30.42 in 6.2 mi East 10.4 mph - N/A   Scattered Clouds
5:50 PM 59.0 °F 53.6 °F 82% 30.42 in 5.6 mi ESE 8.1 mph - N/A   Scattered Clouds
6:20 PM 59.0 °F 51.8 °F 77% 30.42 in 6.2 mi East 8.1 mph - N/A   Scattered Clouds
6:50 PM 57 °F 52 °F 76% 30.43 in 9 mi East 8.1 mph - -   Mostly Cloudy
6:50 PM 57.2 °F 51.8 °F 82% 30.42 in 5.6 mi East 6.9 mph - N/A   Mostly Cloudy
7:20 PM 57.2 °F 51.8 °F 82% 30.42 in 6.2 mi East 5.8 mph - N/A   Mostly Cloudy
7:50 PM 57.2 °F 51.8 °F 82% 30.42 in 6.2 mi East 9.2 mph - N/A   Scattered Clouds
8:20 PM 55.4 °F 50.0 °F 82% 30.42 in 6.2 mi East 5.8 mph - N/A   Partly Cloudy
8:50 PM 57.2 °F 50.0 °F 77% 30.45 in 6.2 mi East 6.9 mph - N/A   Partly Cloudy
9:20 PM 57.2 °F 50.0 °F 77% 30.45 in - East 6.9 mph - N/A   Clear
9:50 PM 57 °F 49 °F 67% 30.45 in 14 mi ESE 9.2 mph - -   Overcast
9:50 PM 55.4 °F 50.0 °F 82% 30.45 in - ESE 8.1 mph - N/A   Clear
10:20 PM 55.4 °F 48.2 °F 77% 30.45 in - ESE 8.1 mph - N/A   Clear
10:50 PM 55.4 °F 48.2 °F 77% 30.45 in - East 8.1 mph - N/A   Clear
11:20 PM 51.8 °F 46.4 °F 82% 30.45 in - East 6.9 mph - N/A   Clear
11:50 PM 51.8 °F 46.4 °F 82% 30.45 in - East 5.8 mph - N/A   Clear